Home > Weather > Halberstadt > Past weeks

Flag for Germany Weather for the Past 2 Weeks in Halberstadt, Saxony-Anhalt, Germany

Now
30 °F

Clear.


Feels Like: 23 °F
Forecast: 28 / 41 °F
Wind: 7 mph from East

Location: Leipzig-Schkeuditz

Current Time: Feb 13, 2016 at 12:32:17 AM

Latest Report: Feb 12, 2016 at 11:50 PM


Visibility: 10 mi

Pressure: 29.47 "Hg

Humidity: 93%

Dew point: 28 °F

Location of HalberstadtLocation

Historic Weather in Halberstadt — Graph

°F

Halberstadt Temperature Yesterday

Maximum temperature yesterday: 43 °F (at 12:50 PM)
Minimum temperature yesterday: 28 °F (at 9:50 PM)
Average temperature yesterday: 36 °F

High & Low Weather Summary for the Past Weeks

 TemperatureHumidityPressure
High54 °F (Feb 1, 12:50 PM)100% (Feb 1, 2:50 AM)30.30 "Hg (Feb 1, 2:50 AM)
Low28 °F (Feb 12, 9:50 PM)53% (Feb 3, 3:50 PM)29.00 "Hg (Feb 9, 8:20 PM)
Average42 °F79%29.79 "Hg
* Reported Jan 28 11:20 PM — Feb 12 11:20 PM, Halberstadt, Weather by CustomWeather, © 2016

Note: Actual official high and low records may vary slightly from our data, if they occured in-between our weather recording intervals... More about our weather records

Advertising

Halberstadt Weather History for the Previous 24 Hours

 ConditionsComfort  
Time TempWeatherWind HumidityBarometerVisibility
11:20 PM
Fri, Feb 12
30 °FClear.8 mph93%29.47 "Hg10 mi
10:20 PM28 °FClear.8 mph93%29.47 "Hg10 mi
9:50 PM28 °FClear.9 mph93%29.47 "Hg10 mi
9:20 PM32 °FClear.8 mph93%29.47 "Hg10 mi
8:50 PM32 °FClear.9 mph87%29.50 "Hg10 mi
8:20 PM34 °FPassing clouds.8 mph81%29.50 "HgN/A
7:50 PM34 °FClear.9 mph81%29.50 "Hg10 mi
7:20 PM37 °FClear.7 mph75%29.50 "Hg10 mi
6:50 PM36 °FPassing clouds.6 mph75%29.50 "HgN/A
6:20 PM37 °FClear.6 mph75%29.53 "Hg10 mi
5:50 PM37 °FPassing clouds.6 mph75%29.50 "HgN/A
5:20 PM39 °FPassing clouds.5 mph65%29.53 "HgN/A
4:50 PM41 °FPassing clouds.3 mph66%29.53 "HgN/A
4:20 PM43 °FPassing clouds.6 mph61%29.53 "HgN/A
3:50 PM43 °FPassing clouds.3 mph61%29.53 "HgN/A
3:20 PM43 °FPartly sunny.5 mph61%29.53 "HgN/A
2:50 PM43 °FPartly sunny.8 mph61%29.56 "HgN/A
2:20 PM43 °FPartly sunny.7 mph61%29.56 "HgN/A
1:50 PM43 °FPartly sunny.9 mph61%29.56 "HgN/A
1:20 PM43 °FScattered clouds.8 mph61%29.59 "HgN/A
12:50 PM43 °FPassing clouds.6 mph66%29.59 "HgN/A
12:20 PM41 °FPassing clouds.6 mph70%29.59 "HgN/A
11:50 AM41 °FPassing clouds.7 mph76%29.62 "HgN/A
11:20 AM41 °FPassing clouds.8 mph76%29.62 "HgN/A
10:50 AM39 °FPassing clouds.7 mph81%29.62 "HgN/A
10:20 AM37 °FScattered clouds.8 mph81%29.62 "HgN/A
9:50 AM36 °FScattered clouds.7 mph87%29.65 "HgN/A
9:20 AM34 °FSunny.6 mph93%29.65 "Hg10 mi
8:50 AM36 °FSunny.8 mph87%29.65 "Hg10 mi
8:20 AM34 °FSunny.7 mph93%29.65 "Hg10 mi
7:50 AM32 °FScattered clouds.7 mph93%29.65 "HgN/A
7:20 AM32 °FPassing clouds.8 mph93%29.65 "HgN/A
6:20 AM32 °FPassing clouds.9 mph93%29.65 "HgN/A
5:50 AM34 °FClear.9 mph87%29.65 "Hg10 mi
5:20 AM34 °FClear.9 mph87%29.65 "Hg10 mi
4:50 AM34 °FClear.10 mph93%29.65 "Hg10 mi
4:20 AM34 °FClear.9 mph93%29.65 "Hg10 mi
3:50 AM32 °FPassing clouds.12 mph93%29.65 "HgN/A
3:20 AM32 °FClear.9 mph93%29.65 "Hg10 mi
2:50 AM34 °FClear.9 mph93%29.65 "Hg10 mi
2:20 AM36 °FClear.9 mph87%29.65 "Hg10 mi
1:50 AM32 °FClear.8 mph93%29.65 "Hg10 mi
1:20 AM32 °FClear.9 mph87%29.65 "Hg10 mi
12:50 AM32 °FClear.10 mph93%29.65 "Hg10 mi
12:20 AM34 °FClear.8 mph87%29.65 "Hg10 mi
Weather by CustomWeather, © 2016

See weather overviewHow to use our weather pages